Regional Weather Roundup
Issued by NWS

Home | Current Version | Previous Version | Text Only | Print | Product List | Glossary On
Versions: 1 2 3 4 5 6 7 8 9 10 11 12 13 14 15 16 17 18 19 20 21 22 23 24 25 26 27 28 29 30 31 32 33 34 35 36 37 38 39 40 41 42 43 44 45 46 47 48 49 50
000
ASUS43 KFSD 311310
RWRSD

WEATHER ROUNDUP FOR SOUTH DAKOTA
NATIONAL WEATHER SERVICE SIOUX FALLS SD
800 AM CDT FRI JUL 31 2015

NOTE: "FAIR" INDICATES FEW OR NO CLOUDS BELOW 12,000 FEET WITH NO
SIGNIFICANT WEATHER AND/OR OBSTRUCTIONS TO VISIBILITY.


SDZ001>005-009-010-012>017-311400-
NORTHWEST AND NORTH CENTRAL SOUTH DAKOTA

CITY           SKY/WX    TMP DP  RH WIND       PRES   REMARKS
BUFFALO          N/A     56  47  71 W5        30.18S
FAITH            N/A     64  50  60 CALM      30.21R
MOBRIDGE       SUNNY     63  60  90 CALM      30.17R
$$

SDZ012>016-024>037-041>051-057-063-072>074-311400-
SOUTHWEST AND SOUTH CENTRAL SOUTH DAKOTA

CITY           SKY/WX    TMP DP  RH WIND       PRES   REMARKS
RAPID CTY ARPT SUNNY     65  51  60 CALM      30.22S
PIERRE         SUNNY     62  55  77 E5        30.17R
CUSTER         SUNNY     58  45  62 CALM      30.37S
ELLSWORTH AFB  SUNNY     65  50  59 NW1       30.22R
PHILIP         SUNNY     57  54  89 W3        30.18R
PINE RIDGE     SUNNY     58  51  78 CALM      30.24R
SPEARFISH      FAIR      61  46  59 NW6       30.29R
WINNER         FAIR      66  57  72 NE3       30.18R
$$

SDZ004>011-016>023-039-040-311400-
NORTHEAST SOUTH DAKOTA

CITY           SKY/WX    TMP DP  RH WIND       PRES   REMARKS
ABERDEEN       SUNNY     62  55  77 CALM      30.16R
WATERTOWN      SUNNY     65  58  78 CALM      30.17R
BROOKINGS      SUNNY     61  55  82 CALM      30.19S
SISSETON         N/A     64  57  78 CALM      30.12S
$$

SDZ017-020-022-023-036>040-048>070-311400-
SOUTHEAST SOUTH DAKOTA

CITY           SKY/WX    TMP DP  RH WIND       PRES   REMARKS
SIOUX FALLS    MOSUNNY   65  61  87 N3        30.17R
HURON          SUNNY     65  58  78 CALM      30.16S
CHAMBERLAIN    SUNNY     66  58  75 CALM      30.17S
MITCHELL       SUNNY     65  60  84 CALM      30.17R
YANKTON          N/A    N/A N/A N/A MISG        N/A
$$

ABBREVIATIONS USED IN REMARKS
   TC - TEMPERATURE IN CELSIUS
  WCI - WIND CHILL INDEX
   HX - HEAT INDEX
  VSB - VISIBILITY



USA.gov is the U.S. government's official web portal to all federal, state and local government web resources and services.